sat.trackr.live / text

‹ back to catalog

STARLINK-31372

NORAD 58939 · 2024-027J

PAYLOAD ACTIVE UNKNOWN

§ Identity

Operator
Country
US
Launch date
2024-02-10
Launch site
AFWTR
Launch vehicle
Mass (kg)
RCS (m²)

Purposes: comms

External: N2YO · Heavens-Above · Gunter

§ Orbital elements

Epoch: 2026-09-20T00:35:48.590016Z

Period
93.85 min
Inclination
53.1607°
Eccentricity
0.0001298
Mean motion
15.34389124 rev/d
Perigee alt
461.8 km
Apogee alt
463.6 km
Semi-major
6,840.9 km
B*
2.0521e-5
RAAN
126.1295°
Arg perigee
70.0829°
Mean anomaly
290.0313°
Rev number
14,709

§ Raw data

STARLINK-313721 58939U 24027J   26263.02486794  .00000317  00000+0  20521-4 0  99922 58939  53.1607 126.1295 0001298  70.0829 290.0313 15.34389124147099

JSON: /api/v1/satellites/58939 · /tle

For live sub-satellite position, see the globe view (requires WebGL).

§ Visibility from observer

Set your observer location to see the next 7 days of passes ≥ 10°. The values pass through the URL so the page stays shareable.

No JS? Fill the form by hand. The geolocation button needs JavaScript.